Home   Weather   Lugano   Past weeks

Flag for Switzerland Past Weather in Lugano, Switzerland — Yesterday and Last 2 Weeks

Now
41 °F

Fog.


Feels Like: 41 °F
Forecast: 29 / 46 °F
Wind: 2 mph from North

Location: Lugano Airport

Current Time: Dec 5, 2016 at 3:34:00 am

Latest Report: Dec 5, 2016 at 2:50 am


Visibility: 3 mi

Pressure: 30.36 "Hg

Humidity: 93%

Dew Point: 39 °F

Location of LuganoLocation

Past Weather in Lugano — Graph

°F

Lugano Temperature Yesterday

Maximum temperature yesterday: 48 °F (at 2:50 pm)
Minimum temperature yesterday: 41 °F (at 1:50 am)
Average temperature yesterday: 44 °F

High & Low Weather Summary for the Past Weeks

 TemperatureHumidityPressure
High59 °F (Dec 1, 2:20 pm)100% (Nov 20, 2:20 am)30.54 "Hg (Nov 20, 2:20 am)
Low27 °F (Nov 30, 2:50 am)39% (Dec 1, 2:20 pm)29.86 "Hg (Nov 27, 1:50 pm)
Average46 °F89%30.12 "Hg
* Reported Nov 20 2:20 am — Dec 5 2:20 am, Lugano, Weather by CustomWeather, © 2016

Note: Actual official high and low records may vary slightly from our data, if they occured in-between our weather recording intervals... More about our weather records

Advertising

Lugano Weather History for the Previous 24 Hours

Scroll right to see more
 ConditionsComfort  
Time TempWeatherWind HumidityBarometerVisibility
2:20 am
Mon, Dec 5
41 °FFog.2 mph93%30.36 "Hg2 mi
1:50 am41 °FFog.1 mph100%30.36 "Hg2 mi
1:20 am43 °FFog.2 mph87%30.36 "Hg3 mi
12:50 am41 °FFog.3 mph93%30.36 "Hg2 mi
12:20 am41 °FFog.3 mph93%30.36 "Hg2 mi
11:50 pm
Sun, Dec 4
41 °FFog.2 mph93%30.36 "Hg3 mi
11:20 pm41 °FFog.3 mph93%30.36 "Hg2 mi
10:50 pm41 °FFog.1 mph93%30.36 "Hg2 mi
10:20 pm43 °FFog.2 mph93%30.36 "Hg2 mi
9:50 pm41 °FFog.3 mph100%30.33 "Hg3 mi
9:20 pm43 °FFog.1 mph93%30.33 "Hg3 mi
8:50 pm43 °FFog.1 mph93%30.33 "Hg3 mi
8:20 pm43 °FFog.1 mph93%30.33 "Hg3 mi
7:50 pm43 °FFog.No wind93%30.33 "Hg3 mi
7:20 pm43 °FFog.1 mph100%30.33 "Hg3 mi
6:50 pm45 °FFog.2 mph87%30.30 "Hg3 mi
6:20 pm45 °FFog.2 mph87%30.30 "Hg3 mi
5:50 pm45 °FFog.1 mph93%30.30 "Hg3 mi
5:20 pm45 °FFog.1 mph93%30.30 "Hg3 mi
4:50 pm46 °FFog.1 mph87%30.27 "Hg3 mi
4:20 pm46 °FFog.1 mph87%30.27 "Hg3 mi
3:50 pm48 °FFog.No wind76%30.27 "Hg3 mi
3:20 pm48 °FFog.1 mph82%30.27 "Hg3 mi
2:50 pm48 °FFog.1 mph82%30.27 "Hg3 mi
2:20 pm46 °FFog.1 mph87%30.27 "Hg3 mi
1:50 pm46 °FFog.1 mph87%30.27 "Hg3 mi
1:20 pm46 °FFog.1 mph87%30.30 "Hg3 mi
12:50 pm46 °FFog.2 mph82%30.30 "Hg3 mi
12:20 pm46 °FFog.1 mph82%30.30 "Hg3 mi
11:50 am46 °FFog.1 mph82%30.30 "Hg3 mi
11:20 am45 °FFog.2 mph87%30.30 "Hg3 mi
10:50 am45 °FFog.3 mph87%30.30 "Hg2 mi
10:20 am43 °FFog.1 mph93%30.30 "Hg2 mi
9:50 am43 °FFog.1 mph93%30.30 "Hg2 mi
9:20 am43 °FFog.1 mph93%30.30 "Hg2 mi
8:50 am43 °FFog.2 mph93%30.30 "Hg2 mi
8:20 am41 °FFog.3 mph100%30.27 "Hg2 mi
7:50 am41 °FFog.2 mph100%30.27 "Hg2 mi
7:20 am41 °FFog.1 mph100%30.27 "Hg2 mi
6:50 am41 °FFog.1 mph100%30.27 "Hg2 mi
6:20 am41 °FFog.2 mph100%30.24 "Hg2 mi
5:50 am41 °FFog.2 mph100%30.27 "Hg1 mi
5:20 am43 °FFog.2 mph93%30.27 "Hg1 mi
4:50 am41 °FFog.1 mph100%30.27 "Hg1 mi
4:20 am43 °FFog.1 mph93%30.27 "Hg1 mi
3:50 am43 °FFog.1 mph93%30.27 "Hg1 mi
3:20 am43 °FFog.2 mph93%30.27 "Hg1 mi
Weather by CustomWeather, © 2016

See weather overviewHow to use our weather pages